Retour au catalogue

STARLINK-36057

ActifCommunicationsVLEO
NORAD 66884·PAYLOAD·🇺🇸 United States

Lancé Dec 4, 2025 depuis Vandenberg Space Force Base

Loading…

Prochains Passages (prochaines 24 heures)

TLE

FraisSource: CelesTrak SupGP

Époque: Sep 15, 2026, 02:30 UTC

1 66884C 25283G   26258.10465278 -.00062273  00000+0 -18398-2 0  2588
2 66884  53.1575 221.0430 0001520  95.6209 175.5517 15.34423383    19

Suivez STARLINK-36057 en temps réel avec AllMySat

Download on the App Store